Regional Weather Roundup
Issued by NWS

Home | Current Version | Previous Version | Graphics & Text | Print | Product List | Glossary On
Versions: 1 2 3 4 5 6 7 8 9 10 11 12 13 14 15 16 17 18 19 20 21 22 23 24 25 26 27 28 29 30 31 32 33 34 35 36 37 38 39 40 41 42 43 44 45 46 47 48 49 50
000
ASUS43 KIND 021109
RWRIN

WEATHER ROUNDUP FOR INDIANA
NATIONAL WEATHER SERVICE INDIANAPOLIS IN
700 AM EDT THU OCT 02 2014

NOTE: "FAIR" INDICATES FEW OR NO CLOUDS BELOW 12,000 FEET WITH NO
SIGNIFICANT WEATHER AND/OR OBSTRUCTIONS TO VISIBILITY.

* - STATION DOES NOT REPORT WEATHER SUCH AS PRECIPITATION OR FOG.

+ - STATION NOT QUALITY CONTROLLED BY THE NATIONAL WEATHER SERVICE.
    USE DATA WITH CAUTION...ESPECIALLY DEWPOINT AND RELATIVE
    HUMIDITY OBSERVATIONS.

INZ001>003-010>013-019-020-021200-
NORTHWEST INDIANA

CITY           SKY/WX    TMP DP  RH WIND       PRES   REMARKS
GARY /AIRPORT/ MOCLDY    64  57  77 S7        29.88F
KNOX *+        CLOUDY    58  54  86 SE3       29.92R
LA PORTE +     CLOUDY    62  57  85 SE6       29.93R
MICHIGAN CITY+ CLOUDY    61  52  72 SE7       29.91S
MONTICELLO +   RAIN      63  57  82 S5        29.93R
RENSSELAER +   LGT RAIN  61  61 100 S7        29.92R
VALPARAISO     CLOUDY    61  55  81 SE6       29.92R

$$

LMZ046-743>745-021200-
SOUTHERN LAKE MICHIGAN

STATION/POSITION TIME  TEMP WIND        PRES
                       AIR  DIR/SP/G
                 (UTC) (F)  (DEG/KT/KT) (MB)
MICHIGAN CITY    1100   63  130/ 13/ 18   N/A

$$

INZ004-005-014>016-021>024-021200-
NORTH CENTRAL INDIANA

CITY           SKY/WX    TMP DP  RH WIND       PRES   REMARKS
GOSHEN         CLOUDY    61  50  67 SE9       29.95R
LOGANSPORT +   CLOUDY    61  52  72 S8        29.94S
PERU/GRISSOM   CLOUDY    60  58  93 S8        29.95R
ROCHESTER +    CLOUDY    63  54  72 S6        29.95R
SOUTH BEND     CLOUDY    63  54  72 SE9       29.94S
WARSAW +       CLOUDY    59  50  72 SE8       29.95S

$$

INZ006>009-017-018-025>027-021200-
NORTHEAST INDIANA

CITY           SKY/WX    TMP DP  RH WIND       PRES   REMARKS
ANGOLA *+      MOCLDY    55  50  82 SE7       29.99S
AUBURN +       MOCLDY    54  48  82 CALM      30.00S
FORT WAYNE     CLOUDY    56  50  80 SE7       29.99R
HUNTINGTON +   MOCLDY    56  51  83 SE5       29.97S

$$

INZ028-029-035-036-043>045-051>053-021200-
WEST CENTRAL INDIANA

CITY           SKY/WX    TMP DP  RH WIND       PRES   REMARKS
GREENCASTLE +  CLOUDY    61  59  94 CALM      29.96R
LAFAYETTE      LGT RAIN  62  59  90 S5        29.93R
TERRE HAUTE    HVY RAIN  64  60  87 CALM      29.96R FOG

$$

INZ030>032-037>040-046>048-054>057-064-065-021200-
CENTRAL INDIANA

CITY           SKY/WX    TMP DP  RH WIND       PRES   REMARKS
CP ATTERBURY + MOCLDY    55  54  94 E3        29.98S FOG
FRANKFORT +    CLOUDY    63  57  82 CALM      29.96R
GREENWOOD *+   MOCLDY    61  54  77 SE7       29.97
INDIANAPOLIS   CLOUDY    61  56  83 SE7       29.95R
-EAGLE CREEK   CLOUDY    63  56  78 SE5       29.95R
KOKOMO *+      CLOUDY    61  52  72 S9        29.96R
MARION +       MOCLDY    58  50  76 S8        29.97R
MT COMFORT *+  MOCLDY    61  52  72 SE6       29.98R
SHELBYVILLE    MOCLDY    63  56  78 SE6       29.97R
ZIONSVILLE +   CLOUDY    62  54  77 SE3       29.97R

$$

INZ033-034-041-042-049-050-058-059-021200-
EAST CENTRAL INDIANA

CITY           SKY/WX    TMP DP  RH WIND       PRES   REMARKS
MUNCIE         PTCLDY    62  54  74 S7        29.98R

$$

INZ060-061-067>069-081>083-085>088-021200-
SOUTHWEST INDIANA

CITY           SKY/WX    TMP DP  RH WIND       PRES   REMARKS
EVANSVILLE     MOCLDY    66  58  75 CALM      29.94R
WASHINGTON +   MOCLDY    66  56  70 S9        29.93R

$$

INZ062-063-066-070>080-084-089>092-021200-
SOUTH CENTRAL AND SOUTHEAST INDIANA

CITY           SKY/WX    TMP DP  RH WIND       PRES   REMARKS
BLOOMINGTON    CLOUDY    63  57  81 SE10      29.95S
NORTH VERNON + PTCLDY    63  59  88 CALM      29.99

$$



USA.gov is the U.S. government's official web portal to all federal, state and local government web resources and services.